Wind_Speed
65 59 61 61 60 60 57 56 55 55 52 52 48 47 45 41 39 37 38 34 32 32 33 33 34 36 38 40 43 45 46 46 46 45 43 44 47 49 52 52 49 46 45
54 68 58 58 59 59 55 55 58 60 56 55 54 52 51 47 45 42 40 38 37 35 34 36 37 39 42 44 47 49 49 47 46 43 42 47 51 51 53 52 50 48 47
43 66 69 68 66 64 60 57 57 57 61 60 56 54 54 52 50 47 45 44 43 42 40 39 41 44 47 48 49 48 47 46 46 46 47 50 54 56 55 53 51 50 50
71 78 57 66 66 69 64 62 56 58 56 57 59 59 56 54 51 51 50 48 48 48 48 46 46 48 48 49 49 50 50 49 50 51 54 55 56 55 54 53 52 52 55
72 70 65 62 61 61 62 63 59 58 59 57 55 59 60 58 56 53 50 51 51 51 49 49 49 51 51 49 51 51 51 53 53 53 55 57 54 53 53 54 56 57 58
76 75 76 80 67 61 47 57 54 58 55 53 54 57 61 60 58 56 54 52 50 50 49 53 51 53 52 51 54 53 54 56 56 57 55 54 54 54 55 57 59 62 64
80 76 75 78 76 67 69 66 58 57 63 62 56 60 58 58 61 61 59 57 53 51 51 55 52 55 55 56 58 56 58 60 55 53 56 57 58 59 60 64 66 66 66
84 81 80 77 75 73 75 70 71 60 62 63 60 58 59 60 59 58 57 55 54 53 53 52 51 54 55 57 61 62 60 59 55 55 57 60 61 63 67 67 63 66 72
89 87 85 82 80 75 76 75 69 64 61 64 60 56 61 60 59 59 58 56 56 57 55 54 54 57 58 62 63 63 62 60 59 62 64 66 67 68 69 67 64 67 67
95 94 92 91 88 85 86 80 77 74 68 64 61 61 61 60 62 61 60 57 56 58 60 60 58 59 61 63 66 64 62 63 66 70 68 69 69 69 68 65 69 75 75
103 102 101 99 97 94 94 88 86 82 72 74 68 70 63 58 60 63 59 61 60 60 63 62 58 63 64 66 68 67 67 69 71 70 69 70 69 69 67 73 76 79 85
111 110 109 108 105 102 98 95 88 86 76 69 65 68 70 58 61 60 62 59 62 60 61 63 62 62 64 65 72 70 72 71 75 73 73 71 74 73 73 77 83 86 90
106 109 110 110 109 106 102 97 92 90 88 78 66 68 65 64 64 61 63 68 59 65 62 62 65 65 67 72 74 74 76 76 77 75 76 75 78 78 80 90 92 93 97
98 101 101 103 102 98 97 91 91 93 94 83 76 69 69 67 59 66 65 62 63 66 59 57 63 65 74 77 77 80 80 80 75 76 78 83 81 88 91 99 100 99 102
90 94 96 96 97 96 92 89 88 92 92 86 83 71 68 71 69 63 61 61 66 68 67 63 68 65 75 75 77 81 83 78 78 79 85 89 91 95 97 98 104 103 107
91 92 92 93 93 92 92 91 88 91 91 91 89 83 69 69 68 61 55 54 56 62 64 67 64 68 73 76 80 83 81 81 83 85 92 95 99 98 103 106 110 110 115
87 93 96 94 93 92 91 88 88 87 91 91 99 94 80 70 66 59 60 56 59 62 64 62 62 65 78 79 79 84 81 85 88 92 97 100 104 105 109 113 113 120 125
71 77 86 94 97 92 84 90 91 87 87 96 94 95 86 74 62 64 67 64 64 67 68 71 73 79 80 79 84 81 82 89 94 98 101 102 106 113 115 114 122 128 132
62 68 74 81 88 95 88 89 86 84 88 94 92 88 84 74 67 71 67 74 69 71 74 68 73 75 80 83 81 85 91 96 102 103 104 110 118 118 116 125 128 134 132
54 59 66 72 81 88 92 81 80 79 87 91 83 76 81 72 73 72 70 73 73 76 78 79 79 80 79 83 86 93 100 105 106 107 110 118 119 123 125 133 133 133 134
47 53 58 64 70 81 93 81 75 76 80 76 70 71 72 75 82 80 72 72 72 78 82 78 79 81 83 90 94 95 99 103 108 111 116 119 125 131 136 137 138 138 137
41 45 50 57 65 77 83 72 67 67 68 68 65 67 70 71 75 67 72 71 75 79 79 80 82 84 84 92 96 100 102 107 109 110 119 124 129 138 142 138 143 138 130
37 40 43 48 57 71 74 65 63 64 63 65 62 62 65 64 68 76 76 76 78 78 77 78 82 85 89 95 99 102 107 108 113 117 119 128 137 141 141 144 141 130 121
34 39 43 46 53 66 68 61 61 63 60 62 60 61 67 69 71 74 78 78 74 77 79 83 86 90 95 99 104 105 106 112 122 131 131 134 138 138 140 142 132 128 123
30 35 44 50 56 68 68 64 64 62 62 64 70 74 70 70 71 72 74 78 79 81 82 88 93 96 102 104 102 108 114 112 121 134 137 134 137 138 137 130 133 131 129
31 37 46 51 54 60 62 61 59 66 71 72 76 69 71 69 75 78 80 82 83 86 90 92 96 103 107 108 106 106 113 129 131 129 134 135 135 124 121 128 136 137 131
Wind_Direction
257 258 258 258 258 258 257 256 257 258 260 264 263 263 264 266 269 271 272 273 274 276 279 279 278 279 279 280 281 284 288 289 293 295 295 300 301 305 309 312 313 313 311
251 254 251 255 257 256 258 258 255 256 258 259 262 263 264 263 265 268 271 273 274 275 277 280 281 281 281 282 283 283 285 288 290 292 294 295 301 304 307 308 308 308 310
231 256 252 255 256 257 258 259 258 257 255 256 259 261 263 262 262 263 267 270 274 275 278 281 284 284 284 285 285 286 287 289 291 294 296 297 301 305 307 306 307 307 308
233 237 262 256 257 254 254 256 257 259 256 255 255 257 260 261 261 262 263 266 270 272 275 279 284 285 286 287 286 286 287 290 294 297 300 301 303 304 304 304 303 305 308
244 237 228 241 245 246 251 258 253 257 257 256 256 256 257 257 260 261 264 268 271 272 275 278 282 283 284 285 285 287 289 292 295 296 299 301 302 303 305 305 305 305 306
247 245 234 237 238 243 238 247 253 252 246 256 261 257 256 256 259 260 264 266 269 274 275 277 280 282 281 283 285 287 290 294 294 298 300 301 301 301 302 303 303 302 302
249 247 244 240 243 237 231 242 247 254 251 254 255 257 256 257 258 262 263 265 269 274 277 278 279 281 282 283 283 287 289 291 295 296 298 300 299 300 300 304 304 303 303
247 246 244 242 241 241 236 243 247 249 252 250 251 252 253 255 256 260 263 266 268 273 276 278 279 281 284 283 284 287 289 288 292 294 294 294 296 297 300 301 308 307 306
247 247 247 244 244 244 245 247 248 245 252 246 246 249 250 252 255 258 261 263 265 270 273 276 279 280 283 285 284 286 287 289 290 290 291 294 300 302 300 302 305 308 309
248 247 247 247 247 247 248 248 249 245 246 247 251 252 250 253 254 254 257 262 264 270 274 274 276 279 281 285 285 285 287 286 292 294 294 300 299 298 300 298 304 308 315
247 247 247 247 249 249 251 249 250 244 244 244 243 248 251 255 256 250 257 262 266 268 276 272 275 277 282 284 285 285 286 287 293 295 295 298 298 302 299 300 302 306 312
244 245 246 246 247 249 249 249 246 242 239 233 240 250 244 248 251 255 257 264 267 268 271 269 273 277 280 283 283 284 284 288 291 295 297 297 299 299 298 300 301 305 311
241 242 243 244 246 246 246 245 243 240 234 232 239 239 245 244 251 254 257 260 260 264 265 272 274 274 281 281 282 284 286 288 293 294 297 297 298 297 298 299 303 305 309
239 239 240 240 241 242 242 240 237 237 234 232 234 233 238 242 249 248 254 258 258 261 267 270 270 276 275 280 284 285 284 287 295 295 296 296 295 297 300 305 303 304 307
238 238 237 236 236 237 237 236 235 233 233 231 228 234 240 244 246 247 252 259 262 267 260 267 271 266 274 277 278 280 285 292 293 294 294 295 296 299 302 301 303 305 306
238 236 235 234 233 232 232 233 232 229 228 229 226 234 240 243 246 249 250 258 261 259 262 265 272 275 274 272 278 283 287 292 293 292 294 296 298 299 302 303 304 304 306
236 235 233 231 231 230 230 229 231 226 226 229 227 229 236 237 243 246 249 253 255 264 268 271 272 273 274 276 278 281 287 289 290 292 294 296 297 300 300 302 307 310 309
232 232 231 229 228 227 224 225 226 225 224 229 229 230 232 236 237 242 251 256 256 262 269 272 271 270 271 275 279 285 287 288 290 291 294 297 298 300 302 305 308 309 310
230 229 228 227 225 223 219 222 223 221 222 227 228 230 233 236 240 244 253 259 260 265 267 268 271 273 274 277 282 286 285 289 291 294 296 298 299 302 303 306 307 308 307
229 227 224 222 221 217 216 218 218 220 220 226 229 231 229 239 241 248 259 260 265 264 266 264 268 271 276 280 283 285 287 289 293 294 296 296 300 302 304 306 307 307 309
224 223 220 217 214 212 211 215 214 218 220 226 226 232 232 235 239 249 255 258 257 259 263 265 269 274 278 281 285 286 287 291 293 294 300 297 302 305 305 308 307 307 309
213 213 211 209 207 208 207 208 211 218 220 221 226 229 235 241 246 251 250 251 254 260 263 269 273 278 281 282 283 287 288 291 293 295 299 301 302 303 306 306 308 310 309
200 201 204 205 205 200 199 202 209 213 215 218 223 226 236 242 243 245 248 255 259 263 270 272 277 280 280 283 284 287 288 292 293 296 299 301 302 304 304 306 307 308 310
191 192 191 190 191 192 193 198 207 211 213 219 226 229 232 239 243 249 254 258 264 267 271 273 276 278 280 283 285 286 290 291 295 298 299 300 302 303 304 307 306 308 311
178 183 182 179 183 190 190 198 208 213 215 218 223 229 237 239 246 250 256 259 264 267 272 273 275 279 281 281 285 288 292 295 297 298 300 302 303 305 305 305 306 309 310
154 146 154 163 178 190 195 202 205 212 216 221 226 233 238 244 248 253 257 263 269 269 271 275 276 277 280 284 288 291 292 294 297 298 300 303 305 303 302 305 307 309 311
Height
10735 10740 10742 10743 10746 10750 10755 10758 10758 10759 10762 10764 10768 10769 10770 10771 10772 10774 10773 10776 10776 10776 10776 10776 10776 10775 10774 10773 10771 10769 10768 10766 10766 10764 10761 10759 10757 10753 10749 10745 10741 10737 10733
10729 10725 10731 10731 10732 10735 10740 10745 10748 10748 10751 10754 10757 10760 10761 10764 10765 10767 10767 10768 10769 10770 10771 10770 10770 10769 10767 10765 10762 10761 10761 10760 10758 10756 10755 10752 10749 10745 10741 10736 10732 10728 10724
10715 10701 10718 10723 10722 10725 10728 10731 10735 10737 10739 10743 10746 10749 10751 10754 10755 10758 10759 10760 10761 10762 10763 10764 10763 10761 10759 10756 10753 10753 10751 10750 10749 10747 10745 10742 10739 10735 10731 10726 10722 10718 10714
10702 10706 10719 10710 10710 10710 10714 10718 10721 10725 10728 10730 10734 10738 10740 10743 10745 10746 10748 10750 10752 10753 10754 10755 10754 10751 10749 10746 10744 10743 10742 10741 10740 10738 10735 10732 10728 10724 10720 10715 10711 10707 10704
10677 10687 10689 10687 10691 10697 10701 10704 10708 10712 10715 10719 10721 10725 10730 10732 10734 10736 10737 10740 10742 10743 10745 10745 10743 10741 10739 10737 10734 10733 10731 10731 10730 10728 10724 10720 10716 10713 10708 10704 10700 10696 10692
10654 10661 10669 10669 10678 10684 10687 10689 10692 10697 10701 10704 10708 10712 10717 10721 10723 10725 10727 10729 10731 10733 10734 10733 10732 10730 10728 10726 10724 10722 10721 10719 10717 10716 10712 10708 10704 10700 10696 10692 10688 10683 10678
10633 10640 10648 10655 10661 10667 10669 10676 10680 10685 10688 10691 10696 10699 10704 10709 10712 10714 10715 10718 10720 10721 10722 10721 10720 10718 10717 10715 10712 10711 10710 10708 10706 10703 10699 10695 10691 10687 10683 10679 10674 10668 10663
10611 10619 10627 10635 10643 10649 10655 10661 10668 10673 10674 10678 10682 10685 10691 10696 10699 10701 10704 10707 10709 10709 10709 10710 10709 10707 10704 10702 10700 10699 10697 10696 10694 10691 10687 10682 10678 10673 10670 10666 10661 10655 10650
10588 10597 10605 10615 10623 10632 10638 10644 10653 10658 10660 10664 10667 10672 10677 10683 10686 10690 10692 10695 10696 10697 10698 10699 10698 10695 10692 10688 10686 10685 10684 10683 10680 10676 10673 10669 10665 10660 10656 10652 10646 10641 10635
10567 10575 10583 10592 10602 10612 10620 10629 10638 10643 10649 10651 10654 10660 10665 10669 10673 10677 10679 10682 10684 10686 10686 10687 10686 10683 10679 10675 10672 10672 10671 10668 10666 10663 10659 10656 10651 10645 10641 10636 10630 10624 10618
10542 10550 10559 10568 10579 10591 10598 10612 10620 10626 10634 10637 10640 10646 10651 10655 10659 10663 10666 10669 10672 10673 10674 10674 10673 10670 10665 10662 10658 10658 10656 10654 10652 10648 10645 10642 10636 10630 10624 10620 10613 10605 10600
10513 10526 10534 10543 10556 10567 10579 10586 10597 10607 10617 10621 10629 10634 10636 10641 10645 10650 10654 10656 10659 10660 10662 10661 10659 10657 10652 10648 10644 10642 10639 10639 10636 10632 10629 10625 10619 10613 10607 10601 10593 10587 10580
10486 10496 10506 10518 10528 10541 10555 10566 10575 10584 10598 10605 10615 10620 10623 10626 10632 10637 10641 10644 10646 10648 10648 10648 10645 10643 10639 10634 10629 10627 10626 10622 10620 10616 10612 10607 10601 10594 10589 10582 10575 10567 10560
10458 10468 10480 10492 10506 10518 10531 10546 10555 10565 10575 10593 10599 10604 10608 10613 10618 10623 10627 10630 10632 10634 10634 10634 10633 10630 10626 10619 10615 10612 10610 10607 10604 10599 10595 10589 10582 10577 10569 10563 10555 10545 10537
10433 10444 10455 10468 10481 10494 10509 10524 10535 10547 10560 10575 10584 10590 10595 10600 10605 10610 10615 10618 10619 10620 10620 10621 10619 10618 10612 10606 10601 10597 10595 10592 10588 10583 10576 10568 10562 10557 10549 10540 10531 10522 10513
10407 10417 10431 10445 10458 10472 10486 10502 10517 10530 10545 10556 10567 10574 10581 10588 10595 10600 10604 10606 10606 10607 10606 10606 10606 10603 10596 10591 10587 10583 10581 10576 10571 10564 10557 10549 10543 10536 10528 10517 10508 10499 10489
10380 10392 10407 10421 10434 10449 10467 10487 10500 10514 10527 10538 10545 10558 10567 10577 10584 10590 10593 10592 10595 10595 10594 10594 10592 10587 10580 10578 10573 10568 10566 10559 10551 10546 10537 10531 10523 10514 10505 10495 10486 10474 10461
10359 10369 10382 10396 10413 10431 10452 10464 10477 10495 10510 10516 10531 10544 10555 10566 10573 10579 10578 10580 10580 10581 10581 10579 10575 10568 10567 10562 10556 10555 10549 10539 10533 10526 10519 10510 10502 10491 10481 10471 10460 10447 10434
10341 10350 10362 10376 10394 10414 10433 10446 10465 10482 10494 10501 10517 10532 10548 10557 10562 10565 10567 10567 10567 10567 10567 10563 10556 10555 10552 10547 10543 10537 10529 10521 10512 10506 10496 10485 10475 10466 10458 10448 10432 10419 10404
10329 10337 10347 10361 10376 10397 10418 10439 10456 10474 10483 10493 10514 10527 10537 10548 10551 10553 10554 10553 10554 10550 10549 10544 10544 10542 10538 10534 10527 10518 10509 10501 10491 10484 10473 10459 10452 10440 10428 10417 10406 10390 10375
10320 10328 10339 10353 10370 10387 10406 10427 10449 10464 10477 10493 10508 10518 10528 10533 10536 10538 10540 10540 10536 10529 10530 10531 10530 10527 10523 10516 10509 10501 10491 10478 10467 10458 10447 10433 10424 10411 10394 10384 10372 10358 10346
10314 10324 10334 10347 10362 10380 10404 10429 10448 10461 10476 10489 10502 10510 10514 10518 10523 10525 10523 10520 10515 10517 10518 10517 10516 10512 10505 10497 10488 10482 10473 10462 10449 10437 10429 10402 10396 10375 10364 10352 10338 10327 10315
10315 10325 10337 10350 10365 10381 10406 10428 10443 10456 10470 10483 10491 10498 10503 10506 10508 10505 10504 10507 10507 10506 10506 10503 10499 10492 10484 10478 10468 10460 10450 10442 10431 10419 10414 10395 10374 10351 10333 10322 10306 10297 10288
10320 10329 10340 10354 10370 10390 10409 10428 10442 10452 10465 10474 10482 10487 10489 10491 10492 10495 10496 10496 10495 10493 10490 10487 10481 10473 10465 10458 10449 10440 10435 10422 10406 10391 10386 10379 10354 10334 10309 10288 10273 10263 10260
10326 10337 10348 10362 10378 10393 10408 10425 10437 10449 10459 10465 10468 10472 10476 10481 10483 10484 10485 10481 10480 10477 10474 10467 10462 10455 10446 10437 10434 10424 10414 10403 10391 10369 10355 10345 10328 10310 10287 10257 10240 10229 10224
10336 10349 10362 10375 10388 10404 10416 10424 10432 10441 10447 10451 10461 10466 10467 10469 10470 10471 10468 10469 10463 10460 10454 10448 10441 10433 10427 10421 10414 10405 10394 10381 10365 10353 10332 10324 10304 10285 10275 10245 10213 10194 10186